Regional Weather Roundup
Issued by NWS

Home | Current Version | Previous Version | Graphics & Text | Print | Product List | Glossary On
Versions: 1 2 3 4 5 6 7 8 9 10 11 12 13 14 15 16 17 18 19 20 21 22 23 24 25 26 27 28 29 30 31 32 33 34 35 36 37 38 39 40 41 42 43 44 45 46 47 48 49 50
326
ASUS43 KIND 062109
RWRIN

WEATHER ROUNDUP FOR INDIANA
NATIONAL WEATHER SERVICE INDIANAPOLIS IN
400 PM EST TUE DEC 06 2016

NOTE: "FAIR" INDICATES FEW OR NO CLOUDS BELOW 12,000 FEET WITH NO
SIGNIFICANT WEATHER AND/OR OBSTRUCTIONS TO VISIBILITY.

* - STATION DOES NOT REPORT WEATHER SUCH AS PRECIPITATION OR FOG.

+ - STATION NOT QUALITY CONTROLLED BY THE NATIONAL WEATHER SERVICE.
    USE DATA WITH CAUTION...ESPECIALLY DEWPOINT AND RELATIVE
    HUMIDITY OBSERVATIONS.

INZ001>003-010>013-019-020-062200-
NORTHWEST INDIANA

CITY           SKY/WX    TMP DP  RH WIND       PRES   REMARKS
GARY /AIRPORT/ CLOUDY    37  34  87 W12       29.77S FOG
KNOX *+        CLOUDY    36  19  51 W14       29.78R
LA PORTE +     CLOUDY    38  38 100 W8        29.77R
MICHIGAN CITY+ CLOUDY    37  34  87 W12G21    29.78R
MONTICELLO +   CLOUDY    34  30  85 W15G23    29.80R FOG     WCI  24
RENSSELAER +     N/A     34  34 100 W13       29.83R FOG     WCI  25
VALPARAISO     CLOUDY    36  31  82 W14       29.80R

$$

LMZ046-743>745-062200-
SOUTHERN LAKE MICHIGAN

STATION/POSITION TIME  TEMP    WIND        PRES    WAVE
                       AIR SEA DIR/SP/G            HT
                 (UTC) (F)     (DEG/KT/KT) (MB)    (FT)
BURNS HARBOR     2040   39     280/ 21/ 25 1008.8R
MICHIGAN CITY    2040   39     240/ 27/ 30   N/A

$$

INZ004-005-014>016-021>024-062200-
NORTH CENTRAL INDIANA

CITY           SKY/WX    TMP DP  RH WIND       PRES   REMARKS
ELKHART        SUNNY     41  32  70 W9        29.73R
GOSHEN         MOSUNNY  N/A N/A N/A W13       29.73R
LOGANSPORT +   CLOUDY    36  34  93 W13G20    29.79R FOG
ROCHESTER +    CLOUDY    41  37  87 W13       29.76R
SOUTH BEND     PTSUNNY   37  31  78 SW14      29.76R
WARSAW +         N/A     39  32  75 W9        29.74

$$

INZ006>009-017-018-025>027-062200-
NORTHEAST INDIANA

CITY           SKY/WX    TMP DP  RH WIND       PRES   REMARKS
ANGOLA *+      CLOUDY    39  30  70 W5        29.71R
AUBURN +       CLOUDY    37  34  87 W9        29.73R
FORT WAYNE     CLOUDY    37  33  85 W14       29.74R
HUNTINGTON +   PTSUNNY   38  35  90 W7        29.74R
KENDALLVILLE + CLOUDY    39  34  83 W3        29.72R

$$

INZ028-029-035-036-043>045-051>053-062200-
WEST CENTRAL INDIANA

CITY           SKY/WX    TMP DP  RH WIND       PRES   REMARKS
CRAWFORDSVL +  CLOUDY    35  35 100 W13G21    29.82R FOG     WCI  26
LAFAYETTE      CLOUDY    34  33  96 W16G23    29.83R FOG     WCI  24
TERRE HAUTE    CLOUDY    39  33  79 NW16G24   29.86R

$$

INZ030>032-037>040-046>048-054>057-064-065-062200-
CENTRAL INDIANA

CITY           SKY/WX    TMP DP  RH WIND       PRES   REMARKS
ANDERSON       CLOUDY    39  36  87 NW12      29.76R FOG
COLUMBUS       CLOUDY   N/A N/A N/A NW14G23   29.79R
FRANKFORT +    CLOUDY    40  37  88 W20       29.81R FOG
GREENWOOD *+   CLOUDY    43  39  86 NW12G17   29.77R
INDIANAPOLIS   CLOUDY    42  36  79 NW17G26   29.79R
-EAGLE CREEK   CLOUDY    42  36  79 W16       29.78R
KOKOMO +       CLOUDY    39  36  89 W17       29.77R FOG
MARION +       CLOUDY    38  35  89 W14       29.76R FOG
MT COMFORT *+  CLOUDY    41  37  87 W12       29.77R
SHELBYVILLE    CLOUDY    44  38  79 W10       29.77R
ZIONSVILLE +   CLOUDY    39  36  88 W14       29.78R

$$

INZ033-034-041-042-049-050-058-059-062200-
EAST CENTRAL INDIANA

CITY           SKY/WX    TMP DP  RH WIND       PRES   REMARKS
MUNCIE         CLOUDY    40  36  86 W14       29.75R FOG

$$

INZ060-061-067>069-081>083-085>088-062200-
SOUTHWEST INDIANA

CITY           SKY/WX    TMP DP  RH WIND       PRES   REMARKS
EVANSVILLE     CLOUDY    41  36  82 NW9G20    29.90R HAZE
HUNTINGBURG *+ CLOUDY    42  38  85 NW10      29.87R
WASHINGTON +   CLOUDY    41  38  90 NW16      29.87R

$$

INZ062-063-066-070>080-084-089>092-062200-
SOUTH CENTRAL AND SOUTHEAST INDIANA

CITY           SKY/WX    TMP DP  RH WIND       PRES   REMARKS
BLOOMINGTON    CLOUDY    42  36  79 W14G23    29.81R
MADISON *+     CLOUDY    43  39  87 W9        29.79R
NORTH VERNON + CLOUDY   N/A N/A N/A W9        29.76R
SEYMOUR +      CLOUDY    45  41  87 W8        29.80R

$$





USA.gov is the U.S. government's official web portal to all federal, state and local government web resources and services.